SCP
1 1 1 1 1 1 2 2 1 1 1 1 1 1 0 0 0 0 0 0 0 1 1 1 1 0 0 0 0 0 0 0 0 0 0 0 0 0 0 0 0 0 0
1 1 1 1 1 1 1 1 1 1 1 1 1 1 1 1 1 0 0 0 1 1 1 1 0 0 0 0 0 0 0 0 0 0 0 0 0 0 0 0 0 0 0
1 1 1 1 1 1 1 1 1 1 1 1 1 1 1 1 1 1 0 1 1 1 1 1 0 0 0 0 0 0 0 1 0 0 0 0 0 0 0 0 0 0 0
1 1 1 1 1 1 1 1 1 1 1 1 1 1 1 1 1 1 1 1 1 1 1 1 0 0 0 1 1 0 0 1 0 0 0 0 0 0 0 0 0 0 0
1 1 1 1 1 1 1 1 1 1 1 1 1 1 1 1 1 1 1 1 1 1 1 1 1 1 1 1 1 1 0 0 0 0 0 0 0 0 0 0 0 0 0
1 1 1 1 1 1 1 1 1 1 1 1 1 1 1 1 1 1 1 1 1 1 1 1 1 1 1 1 1 1 0 0 0 0 0 0 0 0 0 0 0 0 0
1 1 1 1 1 1 1 1 1 1 1 1 1 1 1 1 1 1 1 1 1 1 1 1 1 1 1 1 1 0 0 0 0 0 0 0 0 0 0 0 0 0 0
1 1 1 1 1 1 1 1 0 0 1 1 1 1 0 1 1 1 1 1 1 1 1 1 1 1 1 1 0 0 0 0 0 0 0 0 0 0 0 0 0 0 0
1 1 1 1 1 1 1 0 0 0 0 1 1 1 0 0 1 1 1 1 1 1 1 1 1 1 1 1 0 0 0 0 0 0 0 0 0 0 0 0 0 0 0
1 1 1 1 0 0 1 1 0 0 0 0 0 0 0 0 0 0 0 0 0 0 0 0 0 0 0 0 0 0 0 0 0 0 0 0 0 1 1 0 0 0 0
1 1 1 1 1 1 1 1 0 0 0 0 0 0 0 0 0 0 0 0 0 0 0 0 0 0 0 0 0 0 0 0 0 0 0 0 0 1 1 1 0 0 0
1 1 1 1 1 1 1 1 0 0 0 0 0 0 0 0 0 0 0 0 0 0 0 0 0 0 0 0 0 0 0 0 0 0 0 0 0 1 1 1 1 0 0
1 1 1 1 1 1 1 1 0 0 0 0 0 0 0 0 0 0 0 0 0 0 0 0 0 0 0 0 0 0 0 0 0 0 0 0 0 0 1 1 1 0 0
1 1 1 1 1 1 1 1 1 1 0 0 0 0 0 0 0 0 0 0 0 0 0 0 0 0 0 0 0 0 0 0 0 0 0 0 0 0 1 1 1 1 0
0 1 1 1 1 1 1 1 1 1 1 0 0 0 0 0 0 0 0 0 0 0 0 1 0 0 0 0 0 0 0 0 0 0 0 0 0 0 0 1 1 1 1
0 0 1 1 1 1 1 1 1 1 1 1 0 0 0 0 0 0 0 0 0 0 1 1 1 1 1 1 0 0 0 0 0 0 0 0 0 0 0 0 1 1 1
1 0 0 1 1 1 1 1 1 1 1 1 1 0 0 0 0 0 0 0 0 0 1 1 1 1 1 1 0 0 0 0 0 0 0 0 0 0 0 0 0 1 1
1 0 0 0 0 0 1 1 1 1 1 1 1 1 0 0 0 0 0 0 0 0 1 1 1 1 1 1 0 0 0 0 0 0 0 0 0 0 0 0 0 0 1
1 1 0 0 0 1 1 1 1 1 1 1 1 1 0 0 0 0 0 0 0 0 0 1 1 1 1 1 0 0 0 0 0 0 0 0 0 0 0 0 0 0 0
1 1 1 0 0 1 1 1 1 1 1 1 1 1 1 0 0 0 0 0 0 0 0 0 1 1 0 0 0 0 0 0 0 0 0 0 0 0 0 0 0 0 0
1 1 1 0 0 0 1 1 1 1 1 1 1 1 1 0 0 0 0 0 0 0 0 0 0 0 0 0 0 0 0 0 0 0 0 0 0 0 0 0 0 0 0
1 1 1 0 0 0 0 1 1 1 1 1 0 0 0 0 0 0 0 0 0 0 0 0 0 0 0 0 0 0 0 0 0 0 0 0 0 0 0 0 0 0 0
1 1 1 1 0 0 0 0 1 1 1 1 0 0 0 0 0 0 0 0 0 0 0 0 0 0 0 0 0 0 0 0 0 0 0 0 0 0 0 0 0 0 0
1 1 1 1 0 0 0 0 0 1 1 1 0 0 0 0 0 0 0 0 0 0 0 0 0 0 0 0 0 0 0 0 0 0 0 0 0 0 0 0 0 0 0
0 1 1 1 1 0 0 0 0 0 1 1 0 0 0 0 0 0 0 0 0 0 0 0 0 0 0 0 0 0 0 0 0 0 0 0 0 0 0 0 0 0 0
0 1 1 1 1 0 0 0 0 0 1 1 0 0 0 0 0 0 1 1 1 0 0 0 0 0 0 0 0 0 0 0 0 0 0 0 0 0 0 0 0 0 0
Wind_Speed
5 6 6 7 7 8 8 8 8 8 7 8 8 7 7 8 8 8 9 9 9 9 9 10 10 10 10 9 9 10 10 9 10 10 10 10 10 10 10 10 9 7 11
6 7 6 7 7 7 8 8 8 8 7 7 7 7 7 7 8 8 8 8 8 9 9 9 9 10 9 9 9 8 8 8 7 7 7 8 9 10 10 10 10 7 10
6 7 6 6 7 7 8 7 7 7 7 7 7 6 6 7 7 7 7 8 7 8 8 8 9 9 9 9 8 7 7 6 5 5 4 3 5 9 9 9 9 9 9
6 6 5 5 6 7 7 7 7 7 7 7 6 6 6 6 7 7 7 7 7 7 8 8 8 8 8 8 8 7 6 5 5 4 3 3 4 7 8 8 8 8 8
5 5 5 6 6 6 7 6 6 6 6 6 6 6 5 6 6 6 7 6 7 7 7 7 7 7 8 7 7 6 5 5 5 3 3 4 4 7 8 8 8 7 7
5 5 5 5 5 6 6 6 5 5 6 6 6 6 5 5 6 6 7 6 7 7 7 7 7 7 7 7 7 6 6 5 4 3 4 4 4 6 6 6 7 7 7
4 5 5 5 5 5 5 5 5 5 5 5 5 6 5 6 6 6 6 6 6 7 7 7 7 7 7 6 6 6 6 6 3 3 3 4 4 6 6 6 6 6 6
4 5 5 5 5 4 4 5 4 4 4 5 5 5 6 5 5 6 6 6 6 6 6 7 7 6 6 6 6 6 6 6 3 3 3 4 6 6 6 6 6 6 6
5 5 4 3 3 4 4 3 3 4 4 4 5 5 5 5 5 5 6 6 6 6 6 6 6 6 5 5 5 5 6 6 3 2 4 3 5 6 6 6 6 6 7
5 4 3 2 2 2 2 3 3 3 3 4 4 4 5 5 5 5 5 5 6 6 6 6 6 5 5 4 4 5 5 4 2 3 3 3 5 5 5 6 6 6 6
5 4 3 2 2 2 1 1 2 2 2 3 3 3 3 2 2 3 4 5 5 5 5 5 5 4 4 4 4 3 3 1 2 2 3 4 5 4 5 5 5 5 6
3 4 4 3 2 2 1 1 0 1 1 1 1 1 1 1 1 3 3 4 4 4 4 4 4 3 2 1 2 3 1 2 2 2 3 5 4 4 4 4 5 4 5
2 3 3 3 3 3 2 1 1 0 0 1 1 1 1 1 1 2 2 2 2 2 2 2 1 1 1 1 1 1 1 2 2 2 3 6 5 4 3 3 4 4 4
2 2 3 3 3 2 2 1 1 1 0 0 0 1 1 1 1 1 1 1 1 1 1 1 0 0 1 1 1 1 2 1 1 1 2 4 4 4 4 3 3 3 3
2 2 3 3 3 3 1 1 1 1 1 1 0 0 1 1 1 1 1 1 1 1 1 0 0 1 0 1 1 1 1 1 1 2 1 3 3 3 3 3 3 3 3
2 2 2 2 2 2 1 1 1 1 1 1 1 1 1 1 0 1 1 1 1 1 0 1 1 1 1 1 0 0 0 0 1 1 1 1 2 3 3 3 3 2 2
1 2 2 2 2 2 2 1 1 1 1 1 1 1 1 1 0 0 1 1 1 1 0 0 1 1 1 1 0 0 0 0 1 1 0 0 0 2 3 3 3 3 2
1 1 2 2 2 2 2 1 1 1 1 1 1 1 1 1 0 0 1 1 1 1 0 0 1 1 0 1 0 1 0 0 1 0 0 0 0 1 1 2 3 3 3
1 1 1 2 2 2 1 1 1 1 1 1 1 1 1 1 1 0 1 1 1 0 0 0 0 0 1 1 1 1 1 1 1 0 1 0 0 0 0 2 3 3 4
2 2 2 2 2 2 1 1 1 0 1 1 0 1 1 1 1 1 0 1 1 1 0 0 0 1 0 1 1 1 1 1 1 1 1 0 0 0 0 1 1 2 3
2 2 2 2 2 2 1 1 0 0 0 1 1 1 1 1 1 1 0 1 1 1 1 1 0 0 1 0 0 1 1 1 1 1 1 1 1 1 1 1 0 1 2
1 1 1 1 2 1 1 0 0 0 0 0 1 1 1 1 1 1 0 1 1 1 2 2 1 1 1 0 0 0 1 1 1 1 1 1 1 1 1 1 1 1 1
1 1 1 1 1 1 2 1 1 1 1 1 1 1 1 1 1 1 1 1 1 2 2 3 3 2 2 1 1 1 1 2 1 1 2 1 1 1 1 1 1 1 1
0 1 1 1 1 1 1 1 1 0 1 1 1 1 1 1 1 2 1 1 1 1 2 3 3 2 3 2 1 1 1 1 1 2 2 1 2 2 2 1 1 1 1
1 1 1 1 1 1 1 1 1 1 1 1 1 1 1 1 1 2 2 1 1 1 2 2 2 3 3 3 2 1 1 1 1 2 2 2 2 2 2 2 1 1 1
1 1 1 1 2 2 2 1 1 1 1 1 1 1 1 1 1 2 2 2 1 1 2 2 2 3 3 3 2 2 2 2 2 2 2 2 2 2 2 1 1 1 1
Wind_Direction
95 112 120 115 111 104 99 95 93 89 86 86 85 86 85 84 79 76 75 73 72 72 71 69 69 68 65 63 62 62 63 62 60 62 64 66 67 67 64 61 60 61 63
101 118 118 114 112 106 99 94 91 88 88 89 86 86 88 89 87 83 80 77 75 73 70 69 68 68 66 63 63 63 64 61 58 60 59 63 66 67 66 61 60 63 61
99 118 124 110 109 104 100 96 92 89 88 91 91 89 90 89 87 85 82 78 77 77 74 70 68 66 64 62 62 62 60 56 46 42 40 67 71 67 66 62 61 63 61
99 114 123 106 107 105 101 95 93 91 89 89 89 90 91 89 86 84 83 82 80 79 76 75 71 68 65 62 61 59 56 45 30 20 44 60 68 69 67 63 63 62 60
92 101 109 106 109 108 103 96 92 90 91 91 87 85 90 89 86 86 85 87 85 80 77 75 73 71 68 63 59 55 46 32 18 28 50 59 60 66 65 63 61 60 58
83 91 98 96 109 109 105 99 93 91 91 91 84 79 82 86 84 84 85 86 86 82 78 74 73 71 68 63 57 50 37 20 9 46 51 58 60 63 63 61 60 59 55
81 85 100 80 82 102 107 101 93 90 89 90 84 76 73 80 78 80 85 86 86 84 81 77 75 71 67 63 57 44 27 11 37 53 50 57 62 65 64 64 62 59 55
75 82 100 83 72 72 87 94 91 87 87 88 83 75 71 76 76 78 82 85 89 88 85 82 79 76 70 61 53 40 28 19 28 49 58 56 58 62 60 62 60 57 56
65 71 79 84 81 70 63 76 85 82 82 83 80 76 73 71 78 75 78 81 87 87 87 87 82 79 75 64 52 36 22 11 20 36 55 55 60 62 58 56 56 54 55
59 62 62 62 56 58 74 70 79 81 78 79 76 72 73 72 69 74 77 77 83 85 85 87 86 81 76 68 54 34 13 2 33 42 41 50 60 61 57 55 54 54 50
43 41 45 41 42 31 36 82 97 100 87 86 79 72 78 95 90 78 73 73 75 79 84 87 89 87 75 65 50 27 11 18 43 52 47 46 56 58 55 55 52 47 45
31 26 28 20 32 22 20 47 132 157 142 140 120 125 125 93 96 85 66 68 71 73 80 80 82 84 72 68 36 16 9 27 43 53 50 46 44 46 52 53 52 45 42
27 24 28 16 21 31 16 14 351 353 132 160 130 132 117 111 112 105 103 91 85 79 87 89 75 58 53 60 72 32 14 37 51 56 57 50 37 30 30 42 48 43 37
26 21 21 16 14 21 24 18 9 9 33 102 159 129 130 129 119 119 116 121 108 83 102 102 98 64 57 58 67 48 42 43 54 68 63 53 34 23 14 18 32 32 30
32 19 13 22 16 6 11 16 20 20 32 38 94 83 61 114 133 131 132 120 109 85 89 124 151 150 106 73 52 42 50 43 59 70 75 56 34 14 0 354 4 23 18
26 23 10 12 14 4 3 15 10 16 10 43 39 59 60 70 106 138 136 125 112 108 115 191 191 158 125 102 68 38 34 35 60 65 88 74 36 6 348 347 348 356 9
30 29 19 8 11 0 357 5 5 4 2 41 37 47 60 59 52 112 131 115 117 105 64 148 141 127 137 127 129 345 333 99 72 45 41 114 65 3 350 341 342 344 356
51 49 29 9 8 3 2 355 3 6 19 22 29 44 34 9 115 121 124 116 117 126 132 138 152 130 152 170 195 240 234 171 164 242 124 53 55 0 356 357 347 338 335
74 69 58 25 5 1 9 357 7 9 27 35 26 34 25 7 6 78 145 125 129 132 143 181 9 152 188 216 231 229 223 195 188 223 96 88 43 32 358 357 348 337 327
80 63 54 34 11 13 31 25 25 25 29 37 36 30 19 17 353 349 147 146 147 159 152 127 87 330 232 201 272 274 242 214 175 176 193 164 166 67 39 16 347 320 323
78 59 44 40 26 27 29 29 6 314 353 6 359 11 356 15 6 344 309 173 164 179 185 169 151 285 303 39 1 308 299 239 198 201 189 179 200 208 195 190 245 312 306
88 76 51 41 38 26 357 328 329 322 353 34 18 4 350 340 318 271 236 212 197 193 189 184 166 181 239 185 183 240 297 295 267 243 219 218 227 217 221 228 217 237 276
67 96 53 28 35 19 7 17 23 26 22 21 350 325 336 357 354 337 280 235 223 208 207 202 192 188 198 233 230 185 189 234 281 260 237 237 246 240 232 229 235 240 277
22 42 49 38 30 30 35 33 82 46 339 316 289 307 330 328 328 328 308 270 249 235 222 218 206 207 190 206 242 253 234 208 209 273 277 260 262 252 242 252 248 240 252
54 61 41 26 24 18 20 20 337 323 331 352 352 348 332 303 305 316 309 288 262 258 243 230 221 209 210 205 202 215 245 272 247 213 258 277 282 262 250 247 243 239 245
50 58 45 43 15 6 0 2 336 327 346 2 343 317 312 308 309 315 301 292 276 270 254 241 234 225 221 217 212 205 201 217 227 226 238 257 270 271 268 262 255 250 250